Cross City, FL

4:32 PM EDT on April 28, 2017 (GMT -0400)
Cross City

Weather History for KCTY - December, 2013

Change the Weather History Date:

Wednesday, December 4, 2013

  Actual Average Record
Temperature  
Mean Temperature 69 °F 58 °F  
Max Temperature 80 °F 69 °F 82 °F (1998)
Min Temperature 57 °F 46 °F 30 °F (2007)
Degree Days  
Heating Degree Days 0 8  
Month to date heating degree days 8 32  
Since 1 July heating degree days 137 200  
Cooling Degree Days 4 1  
Month to date cooling degree days 4 4  
Year to date cooling degree days 2826 2606  
Growing Degree Days 18 (Base 50)    
Moisture  
Dew Point 63 °F    
Average Humidity 90    
Maximum Humidity 100    
Minimum Humidity 58    
Precipitation  
Precipitation 0.00 in 0.10 in 0.06 in (2004)
Month to date precipitation 0.00 0.36  
Year to date precipitation 61.47 46.20  
Sea Level Pressure  
Sea Level Pressure 30.03 in    
Wind  
Wind Speed 2 mph (South)    
Max Wind Speed 12 mph    
Max Gust Speed 24 mph    
T = Trace of Precipitation, MM = Missing Value Source: NWS Daily Summary

Daily Weather History Graph

Daily Weather History Graph

Search for Another Location

Airport or City:

Trip Planner

Search our weather history database for the weather conditions in past years. The results will help you decide how hot, cold, wet, or windy it might be!

Date:

Astronomy

Dec. 04, 2013 Rise Set
Actual Time 7:12 AM EST 5:33 PM EST
Civil Twilight 6:46 AM EST 5:59 PM EST
Nautical Twilight 6:16 AM EST 6:28 PM EST
Astronomical Twilight 5:47 AM EST 6:57 PM EST
Moon 8:42 AM EST (12/4) 7:38 PM EST (12/4)
Length of Visible Light 11h 12m
Length of Day
10h 20m
Waxing Crescent, 4% of the Moon is Illuminated
Dec 4
Waxing Crescent
Dec 9
First Quarter
Dec 17
Full
Dec 25
Last Quarter
Jan 1
New

Hourly Weather History & Observations

Time (EST) Temp. Dew Point Humidity Pressure Visibility Wind Dir Wind Speed Gust Speed Precip Events Conditions
12:53 AM 60.1 °F 60.1 °F 100% 29.96 in - Calm Calm - N/A   Unknown
1:53 AM 62.1 °F 62.1 °F 100% 29.96 in - SSE 3.5 mph - N/A   Unknown
2:53 AM 63.0 °F 63.0 °F 100% 29.96 in - South 3.5 mph - N/A   Unknown
3:53 AM 63.0 °F 63.0 °F 100% 29.98 in - Calm Calm - N/A   Unknown
4:53 AM 63.0 °F 63.0 °F 100% 29.99 in - Calm Calm - N/A   Unknown
5:53 AM 62.1 °F 62.1 °F 100% 30.00 in - Calm Calm - N/A   Unknown
6:53 AM 62.1 °F 62.1 °F 100% 30.01 in - Calm Calm - N/A   Unknown
7:53 AM 63.0 °F 63.0 °F 100% 30.02 in - SSE 3.5 mph - 0.01 in   Unknown
8:53 AM 64.9 °F 64.9 °F 100% 30.04 in - South 3.5 mph - N/A   Unknown
9:53 AM 66.0 °F 66.0 °F 100% 30.07 in - SSE 3.5 mph - N/A   Unknown
10:53 AM 69.1 °F 66.9 °F 93% 30.08 in - SSE 3.5 mph - N/A   Unknown
11:53 AM 72.0 °F 66.0 °F 81% 30.07 in - Calm Calm - N/A   Unknown
12:53 PM 78.1 °F 68.0 °F 71% 30.04 in - Variable 3.5 mph - N/A   Unknown
1:53 PM 79.0 °F 64.9 °F 62% 30.02 in - Variable 3.5 mph - N/A   Unknown
2:53 PM 79.0 °F 62.1 °F 56% 30.02 in - SW 9.2 mph - N/A   Unknown
3:53 PM 78.1 °F 64.0 °F 62% 30.01 in - SSW 6.9 mph - N/A   Unknown
4:53 PM 73.0 °F 66.0 °F 79% 30.03 in - SSW 5.8 mph - N/A   Unknown
5:53 PM 69.1 °F 64.9 °F 87% 30.03 in - Calm Calm - N/A   Unknown
6:53 PM 64.0 °F 62.1 °F 93% 30.04 in - Calm Calm - N/A   Unknown
7:53 PM 62.1 °F 61.0 °F 96% 30.04 in - Calm Calm - N/A   Unknown
8:53 PM 61.0 °F 60.1 °F 97% 30.06 in - Calm Calm - N/A   Unknown
9:53 PM 61.0 °F 60.1 °F 97% 30.07 in - Calm Calm - N/A   Unknown
10:53 PM 59.0 °F 59.0 °F 100% 30.08 in - Calm Calm - N/A   Unknown
11:53 PM 59.0 °F 57.9 °F 96% 30.09 in - Calm Calm - N/A   Unknown